Home   Weather   Sancti Spíritus   Past weeks
Flag for Cuba

Past Weather in Sancti Spíritus, Cuba — Yesterday and Last 2 Weeks

Now
84 °F

Partly sunny.


Feels Like: 88 °F
Forecast: 89 / 72 °F
Wind: 12 mph from East

Location: Santa Bárbara

Current Time: May 22, 2019 at 11:49:33 am

Latest Report: May 22, 2019 at 10:51 am


Visibility: 6 mi

Pressure: 30.01 "Hg

Humidity: 62%

Dew Point: 70 °F

Location of Sancti SpíritusLocation

Past Weather in Sancti Spíritus — Graph

°F

Sancti Spíritus Temperature Yesterday

Maximum temperature yesterday: 88 °F (at 12:51 pm)
Minimum temperature yesterday: 66 °F (at 3:51 am)
Average temperature yesterday: 78 °F

High & Low Weather Summary for the Past Weeks

 TemperatureHumidityPressure
High93 °F (May 12, 2:50 pm)94% (May 8, 4:51 am)30.04 "Hg (May 8, 4:51 am)
Low66 °F (May 19, 2:50 am)38% (May 11, 1:50 pm)29.89 "Hg (May 9, 3:50 pm)
Average78 °F75%29.97 "Hg
* Reported May 7 9:50 am — May 22 9:50 am, Sancti Spíritus. Weather by CustomWeather, © 2019

Note: Actual official high and low records may vary slightly from our data, if they occured in-between our weather recording intervals... More about our weather records

Advertising

Sancti Spíritus Weather History for the Previous 24 Hours

Scroll right to see more
 ConditionsComfort  
Time TempWeatherWind HumidityBarometerVisibility
9:50 am
Wed, May 22
82 °FPartly sunny.10 mph66%30.01 "Hg6 mi
8:50 am79 °FPassing clouds.8 mph74%30.01 "Hg6 mi
7:50 am75 °FPassing clouds.3 mph83%29.98 "Hg6 mi
6:50 am70 °FPassing clouds.3 mph94%29.98 "Hg6 mi
6:10 am72 °FPassing clouds.2 mph88%29.95 "Hg6 mi
4:52 am72 °FPassing clouds.2 mph88%29.95 "Hg6 mi
3:52 am72 °FClear.3 mph88%29.98 "Hg6 mi
2:50 am72 °FClear.3 mph88%29.98 "Hg6 mi
1:50 am73 °FPassing clouds.5 mph83%29.98 "Hg6 mi
12:53 am73 °FPassing clouds.5 mph83%30.01 "Hg6 mi
11:51 pm
Tue, May 21
75 °FPassing clouds.5 mph83%30.01 "Hg6 mi
10:50 pm75 °FPassing clouds.7 mph83%30.01 "Hg6 mi
9:51 pm77 °FPassing clouds.7 mph79%29.98 "Hg6 mi
8:52 pm79 °FPassing clouds.7 mph74%29.95 "Hg6 mi
7:52 pm81 °FScattered clouds.13 mph66%29.92 "Hg6 mi
6:50 pm84 °FPassing clouds.15 mph55%29.92 "Hg6 mi
5:52 pm86 °FScattered clouds.14 mph55%29.89 "Hg6 mi
4:53 pm88 °FScattered clouds.13 mph52%29.89 "Hg6 mi
3:52 pm88 °FScattered clouds.13 mph52%29.92 "Hg6 mi
2:51 pm88 °FPartly sunny.8 mph49%29.92 "Hg6 mi
1:50 pm88 °FPartly sunny.6 mph46%29.95 "Hg6 mi
12:51 pm88 °FPartly sunny.6 mph46%29.95 "Hg6 mi
11:53 am86 °FScattered clouds.5 mph52%29.98 "Hg6 mi
Weather by CustomWeather, © 2019

See weather overview